Content
SEND FEEDBACK

Daily
Averages
Monthly
Summary
United States of America

ARCATA, CALIFORNIA


Home > North America > United States > California
Elevation: 217 feet     Latitude: 40 58N     Longitude: 124 06W

WEATHER
 
SELECT A DAY
Number of Records: 242,785;   Date Range: 1/1/95 - 9/29/14
 
SHARE

PRINT THIS DATA

[ ← Previous Day ]
WEATHER ALMANAC - JANUARY 3, 2013
[ Next Day → ]
[ °C ]   °F
Weather ElementAverageHighLow
Temperature45.2 °F55.9 °F (1:53 pm)34 °F (3:53 am)
Dewpoint37.8 °F42.8 °F (6:31 pm)30.9 °F (1:53 am)
Humidity77.3 %100 % (9:53 pm)52 % (8:53 am)
Barometer30.22 in30.32 in (8:53 pm)30.09 in (3:53 am)
Wind Speed4.5 mph11.5 mph (12:37 pm)
Wind Gust20.7 mph (11:53 am)
Weather ElementAverage
Visibility8.7 mi
Wind DirectionE (90.7 °)

Weather ElementTotal
Precipitation---
Heating Degree Days20.1 (Base 65)
Averaged from 28 records on January 3, 2013
WEATHER CONDITIONS BREAKOUT
WIND DIRECTION BREAKOUT
WEATHER BY HOUR - JANUARY 3, 2013
[ °C ]   °F
Local TimeTemperatureDewpointHumidityBarometerVisibilityWind DirectionWind SpeedGust SpeedPrecipitationEventsConditions
1:53 AM37.0 °F30.9 °F79 %30.10 inESE (120°)6.9 mphClear
2:53 AM35.1 °F32.0 °F89 %30.11 inEast (80°)4.6 mphClear
3:53 AM34.0 °F30.9 °F89 %30.09 in10.0 miESE (110°)3.5 mphPartly Cloudy
4:53 AM37.0 °F34.0 °F89 %30.09 in10.0 miEast (80°)5.8 mphOvercast
5:53 AM39.0 °F35.1 °F86 %30.10 in10.0 miEast (100°)4.6 mphOvercast
6:53 AM42.1 °F34.0 °F73 %30.11 in10.0 miEast (100°)3.5 mphOvercast
7:53 AM48.0 °F34.0 °F58 %30.14 in10.0 miSouth (180°)8.1 mph0.00 inRainLight Rain
8:53 AM50.0 °F33.1 °F52 %30.16 in10.0 miSSE (150°)6.9 mph0.00 inOvercast
9:53 AM50.0 °F37.0 °F61 %30.20 in10.0 miCalmOvercast
10:53 AM51.1 °F39.0 °F63 %30.23 in10.0 miSSW (200°)9.2 mphOvercast
11:53 AM51.1 °F39.0 °F63 %30.22 in10.0 miSE (140°)10.4 mph20.7 mphOvercast
12:37 PM53.6 °F39.2 °F58 %30.19 in10.0 miSSE (150°)11.5 mphOvercast
12:45 PM53.6 °F39.2 °F58 %30.18 in10.0 miSE (140°)5.8 mph18.4 mphOvercast
12:53 PM54.0 °F39.9 °F59 %30.21 in10.0 miSSE (150°)10.4 mphOvercast
1:53 PM55.9 °F41.0 °F57 %30.21 in10.0 miSouth (190°)6.9 mphOvercast
2:53 PM55.0 °F39.9 °F57 %30.24 in10.0 miSouth (190°)10.4 mphOvercast
3:53 PM55.0 °F41.0 °F59 %30.25 in10.0 miSouth (190°)10.4 mphScattered Clouds
4:53 PM50.0 °F41.0 °F71 %30.26 in10.0 miSouth (170°)4.6 mphPartly Cloudy
5:53 PM46.0 °F42.1 °F86 %30.28 in10.0 miEast (100°)3.5 mphScattered Clouds
6:21 PM44.6 °F41.0 °F87 %30.26 in4.0 miCalmPartly Cloudy
6:31 PM44.6 °F42.8 °F93 %30.26 in2.5 miCalmClear
6:38 PM42.8 °F41.0 °F93 %30.26 in5.0 miCalmClear
6:53 PM42.1 °F39.9 °F92 %30.29 in8.0 miCalmPartly Cloudy
7:53 PM41.0 °F39.9 °F96 %30.31 in10.0 miCalmClear
8:53 PM39.9 °F39.0 °F97 %30.32 in4.0 miCalmMostly Cloudy
9:53 PM39.0 °F39.0 °F100 %30.32 in8.0 miCalmOvercast
10:53 PM37.0 °F37.0 °F100 %30.32 in6.0 miCalmClear
11:53 PM37.0 °F37.0 °F100 %30.32 in9.0 miCalmClear
Hourly data recorded from KACV, located miles away from Arcata, California







STORIES FROM OUR PARTNERS